Time,TemperatureF,DewpointF,PressureIn,WindDirection,WindDirectionDegrees,WindSpeedMPH,WindSpeedGustMPH,Humidity,HourlyPrecipIn,Conditions,Clouds,dailyrainin,SolarRadiationWatts/m^2,SoftwareType,DateUTC
2013-01-29 00:21:00,3.0,-2.0,-100.00,NE,39,5.0,9.0,79,0.00,,,0.00,0.000000,,2013-01-29 09:21:00,
2013-01-29 00:31:00,3.0,-2.0,-100.00,NE,39,5.0,9.0,79,0.00,,,0.00,0.000000,,2013-01-29 09:31:00,
2013-01-29 00:42:00,3.0,-2.0,-100.00,NE,39,5.0,9.0,79,0.00,,,0.00,0.000000,,2013-01-29 09:42:00,
2013-01-29 00:51:00,3.0,-2.0,-100.00,NE,39,5.0,9.0,79,0.00,,,0.00,0.000000,,2013-01-29 09:51:00,
2013-01-29 01:21:00,2.0,-4.0,-100.00,NNE,25,8.0,17.0,77,0.00,,,-99.99,0.000000,,2013-01-29 10:21:00,
2013-01-29 01:32:00,2.0,-4.0,-100.00,NNE,25,8.0,17.0,77,0.00,,,-99.99,0.000000,,2013-01-29 10:32:00,
2013-01-29 01:41:00,2.0,-4.0,-100.00,NNE,25,8.0,17.0,77,0.00,,,-99.99,0.000000,,2013-01-29 10:41:00,
2013-01-29 01:51:00,2.0,-4.0,-100.00,NNE,25,8.0,17.0,77,0.00,,,-99.99,0.000000,,2013-01-29 10:51:00,
2013-01-29 02:21:00,1.0,-4.0,-100.00,NNE,28,7.0,14.0,78,0.00,,,0.00,0.000000,,2013-01-29 11:21:00,
2013-01-29 02:32:00,1.0,-4.0,-100.00,NNE,28,7.0,14.0,78,0.00,,,0.00,0.000000,,2013-01-29 11:32:00,
2013-01-29 02:42:00,1.0,-4.0,-100.00,NNE,28,7.0,14.0,78,0.00,,,0.00,0.000000,,2013-01-29 11:42:00,
2013-01-29 02:52:00,1.0,-4.0,-100.00,NNE,28,7.0,14.0,78,0.00,,,0.00,0.000000,,2013-01-29 11:52:00,
2013-01-29 03:22:00,1.0,-4.0,-100.00,NNE,16,8.0,20.0,78,0.00,,,0.00,0.000000,,2013-01-29 12:22:00,
2013-01-29 03:32:00,1.0,-4.0,-100.00,NNE,16,8.0,20.0,78,0.00,,,0.00,0.000000,,2013-01-29 12:32:00,
2013-01-29 03:42:00,1.0,-4.0,-100.00,NNE,16,8.0,20.0,78,0.00,,,0.00,0.000000,,2013-01-29 12:42:00,
2013-01-29 03:52:00,1.0,-4.0,-100.00,NNE,16,8.0,20.0,78,0.00,,,0.00,0.000000,,2013-01-29 12:52:00,
2013-01-29 04:22:00,1.0,-4.0,-100.00,NNE,27,7.0,17.0,78,0.00,,,0.00,0.000000,,2013-01-29 13:22:00,
2013-01-29 04:32:00,1.0,-4.0,-100.00,NNE,27,7.0,17.0,78,0.00,,,0.00,0.000000,,2013-01-29 13:32:00,
2013-01-29 04:42:00,1.0,-4.0,-100.00,NNE,27,7.0,17.0,78,0.00,,,0.00,0.000000,,2013-01-29 13:42:00,
2013-01-29 04:52:00,1.0,-4.0,-100.00,NNE,27,7.0,17.0,78,0.00,,,0.00,0.000000,,2013-01-29 13:52:00,
2013-01-29 05:21:00,2.0,-4.0,-100.00,NNE,28,6.0,14.0,77,0.00,,,-99.99,0.000000,,2013-01-29 14:21:00,
2013-01-29 05:32:00,2.0,-4.0,-100.00,NNE,28,6.0,14.0,77,0.00,,,-99.99,0.000000,,2013-01-29 14:32:00,
2013-01-29 05:43:00,2.0,-4.0,-100.00,NNE,28,6.0,14.0,77,0.00,,,-99.99,0.000000,,2013-01-29 14:43:00,
2013-01-29 05:52:00,2.0,-4.0,-100.00,NNE,28,6.0,14.0,77,0.00,,,-99.99,0.000000,,2013-01-29 14:52:00,
2013-01-29 06:22:00,2.0,-3.0,-100.00,NNE,27,6.0,14.0,78,0.00,,,0.00,0.000000,,2013-01-29 15:22:00,
2013-01-29 06:33:00,2.0,-3.0,-100.00,NNE,27,6.0,14.0,78,0.00,,,0.00,0.000000,,2013-01-29 15:33:00,
2013-01-29 06:42:00,2.0,-3.0,-100.00,NNE,27,6.0,14.0,78,0.00,,,0.00,0.000000,,2013-01-29 15:42:00,
2013-01-29 06:52:00,2.0,-3.0,-100.00,NNE,27,6.0,14.0,78,0.00,,,0.00,0.000000,,2013-01-29 15:52:00,
2013-01-29 07:22:00,2.0,-3.0,-100.00,NNE,23,6.0,12.0,78,0.00,,,0.00,0.000000,,2013-01-29 16:22:00,
2013-01-29 07:32:00,2.0,-3.0,-100.00,NNE,23,6.0,12.0,78,0.00,,,0.00,0.000000,,2013-01-29 16:32:00,
2013-01-29 08:21:00,3.0,-2.0,-100.00,NNE,30,6.0,10.0,79,0.00,,,0.00,0.000000,,2013-01-29 17:21:00,
2013-01-29 08:32:00,3.0,-2.0,-100.00,NNE,30,6.0,10.0,79,0.00,,,0.00,0.000000,,2013-01-29 17:32:00,
2013-01-29 08:42:00,3.0,-2.0,-100.00,NNE,30,6.0,10.0,79,0.00,,,0.00,0.000000,,2013-01-29 17:42:00,
2013-01-29 08:52:00,3.0,-2.0,-100.00,NNE,30,6.0,10.0,79,0.00,,,0.00,0.000000,,2013-01-29 17:52:00,
2013-01-29 09:22:00,3.0,-2.0,-100.00,NNE,21,6.0,9.0,80,0.00,,,0.00,0.000000,,2013-01-29 18:22:00,
2013-01-29 09:33:00,3.0,-2.0,-100.00,NNE,21,6.0,9.0,80,0.00,,,0.00,0.000000,,2013-01-29 18:33:00,
2013-01-29 09:42:00,3.0,-2.0,-100.00,NNE,21,6.0,9.0,80,0.00,,,0.00,0.000000,,2013-01-29 18:42:00,
2013-01-29 09:51:00,3.0,-2.0,-100.00,NNE,21,6.0,9.0,80,0.00,,,0.00,0.000000,,2013-01-29 18:51:00,
2013-01-29 10:22:00,4.0,-1.0,-100.00,NNE,27,4.0,9.0,78,0.00,,,0.00,1.000000,,2013-01-29 19:22:00,
2013-01-29 10:32:00,4.0,-1.0,-100.00,NNE,27,4.0,9.0,78,0.00,,,0.00,1.000000,,2013-01-29 19:32:00,
2013-01-29 10:42:00,4.0,-1.0,-100.00,NNE,27,4.0,9.0,78,0.00,,,0.00,1.000000,,2013-01-29 19:42:00,
2013-01-29 10:52:00,4.0,-1.0,-100.00,NNE,27,4.0,9.0,78,0.00,,,0.00,1.000000,,2013-01-29 19:52:00,
2013-01-29 11:22:00,10.0,5.0,-100.00,SSE,150,4.0,9.0,78,0.00,,,0.00,8.000000,,2013-01-29 20:22:00,
2013-01-29 11:33:00,10.0,5.0,-100.00,SSE,150,4.0,9.0,78,0.00,,,0.00,8.000000,,2013-01-29 20:33:00,
2013-01-29 11:42:00,10.0,5.0,-100.00,SSE,150,4.0,9.0,78,0.00,,,0.00,8.000000,,2013-01-29 20:42:00,
2013-01-29 11:53:00,10.0,5.0,-100.00,SSE,150,4.0,9.0,78,0.00,,,0.00,8.000000,,2013-01-29 20:53:00,
2013-01-29 12:22:00,16.0,12.0,-100.00,SSW,199,3.0,6.0,85,0.00,,,-99.99,19.000000,,2013-01-29 21:22:00,
2013-01-29 12:33:00,16.0,12.0,-100.00,SSW,199,3.0,6.0,85,0.00,,,-99.99,19.000000,,2013-01-29 21:33:00,
2013-01-29 12:42:00,16.0,12.0,-100.00,SSW,199,3.0,6.0,85,0.00,,,-99.99,19.000000,,2013-01-29 21:42:00,
2013-01-29 12:52:00,16.0,12.0,-100.00,SSW,199,3.0,6.0,85,0.00,,,-99.99,19.000000,,2013-01-29 21:52:00,
2013-01-29 13:22:00,19.0,14.0,-100.00,ESE,114,2.0,4.0,81,0.00,,,0.00,38.000000,,2013-01-29 22:22:00,
2013-01-29 13:33:00,19.0,14.0,-100.00,ESE,114,2.0,4.0,81,0.00,,,0.00,38.000000,,2013-01-29 22:33:00,
2013-01-29 13:42:00,19.0,14.0,-100.00,ESE,114,2.0,4.0,81,0.00,,,0.00,38.000000,,2013-01-29 22:42:00,
2013-01-29 13:52:00,19.0,14.0,-100.00,ESE,114,2.0,4.0,81,0.00,,,0.00,38.000000,,2013-01-29 22:52:00,
2013-01-29 14:22:00,14.0,9.0,-100.00,ENE,62,2.0,7.0,79,0.00,,,0.00,27.000000,,2013-01-29 23:22:00,
2013-01-29 14:32:00,14.0,9.0,-100.00,ENE,62,2.0,7.0,79,0.00,,,0.00,27.000000,,2013-01-29 23:32:00,
2013-01-29 14:42:00,14.0,9.0,-100.00,ENE,62,2.0,7.0,79,0.00,,,0.00,27.000000,,2013-01-29 23:42:00,
2013-01-29 14:52:00,14.0,9.0,-100.00,ENE,62,2.0,7.0,79,0.00,,,0.00,27.000000,,2013-01-29 23:52:00,
2013-01-29 15:22:00,13.0,7.0,-100.00,ENE,71,3.0,6.0,77,0.00,,,0.00,18.000000,,2013-01-30 00:22:00,
2013-01-29 15:32:00,13.0,7.0,-100.00,ENE,71,3.0,6.0,77,0.00,,,0.00,18.000000,,2013-01-30 00:32:00,
2013-01-29 15:42:00,13.0,7.0,-100.00,ENE,71,3.0,6.0,77,0.00,,,0.00,18.000000,,2013-01-30 00:42:00,
2013-01-29 15:52:00,13.0,7.0,-100.00,ENE,71,3.0,6.0,77,0.00,,,0.00,18.000000,,2013-01-30 00:52:00,
2013-01-29 16:22:00,15.0,10.0,-100.00,ESE,102,2.0,5.0,80,0.00,,,0.00,12.000000,,2013-01-30 01:22:00,
2013-01-29 16:32:00,15.0,10.0,-100.00,ESE,102,2.0,5.0,80,0.00,,,0.00,12.000000,,2013-01-30 01:32:00,
2013-01-29 16:42:00,15.0,10.0,-100.00,ESE,102,2.0,5.0,80,0.00,,,0.00,12.000000,,2013-01-30 01:42:00,
2013-01-29 16:51:00,15.0,10.0,-100.00,ESE,102,2.0,5.0,80,0.00,,,0.00,12.000000,,2013-01-30 01:51:00,
2013-01-29 17:21:00,16.0,13.0,-100.00,South,182,3.0,4.0,86,0.00,,,0.00,3.000000,,2013-01-30 02:21:00,
2013-01-29 17:33:00,16.0,13.0,-100.00,South,182,3.0,4.0,86,0.00,,,0.00,3.000000,,2013-01-30 02:33:00,
2013-01-29 17:42:00,16.0,13.0,-100.00,South,182,3.0,4.0,86,0.00,,,0.00,3.000000,,2013-01-30 02:42:00,
2013-01-29 17:52:00,16.0,13.0,-100.00,South,182,3.0,4.0,86,0.00,,,0.00,3.000000,,2013-01-30 02:52:00,
2013-01-29 18:22:00,18.0,14.0,-100.00,SE,143,2.0,7.0,85,0.00,,,0.00,0.000000,,2013-01-30 03:22:00,
2013-01-29 18:32:00,18.0,14.0,-100.00,SE,143,2.0,7.0,85,0.00,,,0.00,0.000000,,2013-01-30 03:32:00,
2013-01-29 18:42:00,18.0,14.0,-100.00,SE,143,2.0,7.0,85,0.00,,,0.00,0.000000,,2013-01-30 03:42:00,
2013-01-29 18:51:00,18.0,14.0,-100.00,SE,143,2.0,7.0,85,0.00,,,0.00,0.000000,,2013-01-30 03:51:00,
2013-01-29 19:22:00,20.0,16.0,-100.00,South,176,2.0,5.0,84,0.00,,,0.00,0.000000,,2013-01-30 04:22:00,
2013-01-29 19:32:00,20.0,16.0,-100.00,South,176,2.0,5.0,84,0.00,,,0.00,0.000000,,2013-01-30 04:32:00,
2013-01-29 19:41:00,20.0,16.0,-100.00,South,176,2.0,5.0,84,0.00,,,0.00,0.000000,,2013-01-30 04:41:00,
2013-01-29 19:51:00,20.0,16.0,-100.00,South,176,2.0,5.0,84,0.00,,,0.00,0.000000,,2013-01-30 04:51:00,
2013-01-29 20:22:00,18.0,15.0,-100.00,South,184,2.0,5.0,86,0.00,,,0.00,0.000000,,2013-01-30 05:22:00,
2013-01-29 20:32:00,18.0,15.0,-100.00,South,184,2.0,5.0,86,0.00,,,0.00,0.000000,,2013-01-30 05:32:00,
2013-01-29 20:42:00,18.0,15.0,-100.00,South,184,2.0,5.0,86,0.00,,,0.00,0.000000,,2013-01-30 05:42:00,
2013-01-29 20:52:00,18.0,15.0,-100.00,South,184,2.0,5.0,86,0.00,,,0.00,0.000000,,2013-01-30 05:52:00,
2013-01-29 21:21:00,17.0,15.0,-100.00,South,189,3.0,5.0,90,0.00,,,0.00,0.000000,,2013-01-30 06:21:00,
2013-01-29 21:31:00,17.0,15.0,-100.00,South,189,3.0,5.0,90,0.00,,,0.00,0.000000,,2013-01-30 06:31:00,
2013-01-29 21:41:00,17.0,15.0,-100.00,South,189,3.0,5.0,90,0.00,,,0.00,0.000000,,2013-01-30 06:41:00,
2013-01-29 21:51:00,17.0,15.0,-100.00,South,189,3.0,5.0,90,0.00,,,0.00,0.000000,,2013-01-30 06:51:00,
2013-01-29 22:21:00,18.0,14.0,-100.00,South,171,2.0,6.0,84,0.00,,,0.00,0.000000,,2013-01-30 07:21:00,
2013-01-29 22:31:00,18.0,14.0,-100.00,South,171,2.0,6.0,84,0.00,,,0.00,0.000000,,2013-01-30 07:31:00,
2013-01-29 22:41:00,18.0,14.0,-100.00,South,171,2.0,6.0,84,0.00,,,0.00,0.000000,,2013-01-30 07:41:00,
2013-01-29 22:52:00,18.0,14.0,-100.00,South,171,2.0,6.0,84,0.00,,,0.00,0.000000,,2013-01-30 07:52:00,
2013-01-29 23:21:00,14.0,11.0,-100.00,NNE,18,5.0,7.0,88,0.00,,,0.00,0.000000,,2013-01-30 08:21:00,
2013-01-29 23:32:00,14.0,11.0,-100.00,NNE,18,5.0,7.0,88,0.00,,,0.00,0.000000,,2013-01-30 08:32:00,
2013-01-29 23:41:00,14.0,11.0,-100.00,NNE,18,5.0,7.0,88,0.00,,,0.00,0.000000,,2013-01-30 08:41:00,
2013-01-29 23:52:00,14.0,11.0,-100.00,NNE,18,5.0,7.0,88,0.00,,,0.00,0.000000,,2013-01-30 08:52:00,